• Join FlightAware (Why Join?)
  • Login
  • US Flag 
10:56PM EST


 

Airport Tracker/Info


-or-


 

Live Flight TrackerFlight Track Log ✈ RPA3284 ✈ 02-Aug-2014 ✈ KPHL - KCMH

Flight Track Log - Related Links

Times and Time Zones

All times are in EDT time to prevent confusion due to time zone crossing. See the RPA3284 flight status page for this flight to view local times or setup timezone preferences in your user account.

Time Position Orientation Groundspeed Altitude Reporting Facility
EDT Latitude Longitude Course Direction KTS MPH feet Rate Location/Type
06:09PM 39.8667 -75.2167 258° West 424 488 1,000  Level Philadelphia TRACON
06:10PM 39.8833 -75.2167 360° North 377 434 1,500 1,917 Climbing Philadelphia TRACON
06:11PM 39.9000 -75.1500 72° East 141 162 3,300 2,236 Climbing Philadelphia TRACON
06:12PM 39.9706 -75.1831 340° North 207 238 7,500 2,556 Climbing New York Center
06:13PM 39.9070 -75.6281 288° West  Level FlightAware Approximate
06:13PM 39.9608 -75.2775 262° West 202 232 10,200  Level New York Center
06:14PM 39.9066 -75.7270 258° West  Level FlightAware Approximate
06:14PM 39.9503 -75.3850 263° West 278 320 11,900  Level New York Center
06:15PM 39.9392 -75.5089 263° West 309 356 12,000 1,438 Climbing New York Center
06:16PM 39.9214 -75.6375 260° West 365 420 14,800 2,750 Climbing New York Center
06:17PM 39.9139 -75.7669 266° West 365 420 17,500 2,500 Climbing New York Center
06:18PM 39.9144 -75.8969 270° West 360 414 19,800 2,066 Climbing New York Center
06:19PM 39.9128 -76.0294 269° West 366 421 21,700 1,574 Climbing New York Center
06:20PM 39.9106 -76.1700 269° West 371 427 23,000 1,678 Climbing New York Center
06:21PM 39.9144 -76.3167 272° West 393 452 25,000 2,000 Climbing New York Center
06:22PM 39.9200 -76.4606 273° West 404 465 26,900 1,900 Climbing New York Center
06:23PM 39.9256 -76.6044 273° West 404 465 28,800 1,525 Climbing New York Center
06:24PM 39.9311 -76.7431 273° West 404 465 30,000 893 Climbing New York Center
06:25PM 39.9358 -76.8922 272° West 404 465 30,600 1,000 Climbing New York Center
06:26PM 39.9408 -77.0364 273° West 409 471 32,000 694 Climbing New York Center
06:27PM 39.9461 -77.1722 273° West 414 476 32,000  Level New York Center
06:28PM 39.9525 -77.3219 273° West 414 476 32,000 -382 Level New York Center
06:29PM 39.9556 -77.4403 272° West 409 471 31,300 -956 Descending Cleveland Center
06:30PM 39.9608 -77.6161 272° West 407 468 30,200 -629 Descending Cleveland Center
06:31PM 39.9650 -77.7656 272° West 412 474 30,000 -97 Descending Cleveland Center
06:32PM 39.9694 -77.9156 272° West 413 475 30,000  Level Cleveland Center
06:33PM 39.9739 -78.0658 272° West 415 478 30,000  Level Cleveland Center
06:34PM 39.9775 -78.2150 272° West 415 478 30,000  Level Cleveland Center
06:35PM 39.9828 -78.3925 272° West 417 480 30,000  Level Cleveland Center
06:36PM 39.9864 -78.5431 272° West 418 481 30,000  Level Cleveland Center
06:37PM 39.9906 -78.6947 272° West 418 481 30,000  Level Cleveland Center
06:38PM 39.9931 -78.8447 271° West 418 481 30,000  Level Cleveland Center
06:39PM 39.9964 -79.0167 272° West 419 482 30,000  Level Cleveland Center
06:41PM 39.9994 -79.1653 272° West 417 480 30,000  Level Cleveland Center
06:42PM 40.0025 -79.3128 272° West 411 473 30,000  Level Cleveland Center
06:43PM 40.0172 -79.4561 278° West 403 464 30,000  Level Cleveland Center
06:44PM 40.0522 -79.5978 288° West 409 471 30,000  Level Cleveland Center
06:45PM 40.0853 -79.7411 287° West 410 472 30,000  Level Cleveland Center
06:46PM 40.0931 -79.8847 274° West 400 460 30,000  Level Cleveland Center
06:47PM 40.1028 -80.0331 275° West 404 465 30,000  Level Cleveland Center
06:48PM 40.1186 -80.2067 277° West 403 464 30,000 -585 Level Cleveland Center
06:49PM 40.1028 -80.3497 262° West 398 458 28,800 -1,756 Descending Cleveland Center
06:50PM 40.0783 -80.4814 256° West 378 435 26,400 -1,984 Descending Cleveland Center
06:51PM 40.0528 -80.6150 256° West 375 432 24,700 -1,645 Descending Cleveland Center
06:52PM 40.0283 -80.7486 257° West 376 433 23,000 -1,415 Descending Cleveland Center
06:53PM 40.0025 -80.8839 256° West 379 436 21,800 -1,171 Descending Cleveland Center
06:54PM 39.9753 -81.0219 256° West 391 450 20,600 -1,171 Descending Cleveland Center
06:55PM 39.9492 -81.1614 256° West 397 457 19,400 -1,268 Descending Cleveland Center
06:56PM 39.9192 -81.3133 256° West 362 417 18,000 -1,161 Descending Cleveland Center
06:57PM 39.8950 -81.4356 256° West 356 410 17,000 -1,073 Descending Cleveland Center
06:58PM 39.8706 -81.5631 256° West 361 415 15,800 -1,171 Descending Cleveland Center
06:59PM 39.8458 -81.6908 256° West 363 418 14,600 -1,279 Descending Cleveland Center
07:00PM 39.8158 -81.8294 254° West 368 423 13,200 -1,301 Descending Indianapolis Center
07:00PM 39.8089 -81.8703 258° West 364 419 12,800 -1,286 Descending Indianapolis Center
07:01PM 39.8031 -81.9942 267° West 347 399 11,400 -1,405 Descending Indianapolis Center
07:02PM 39.8103 -82.1117 275° West 351 404 10,200 -1,355 Descending Indianapolis Center
07:02PM 39.8103 -82.1228 270° West 352 405 10,000 -197 Descending Indianapolis Center
07:03PM 39.8181 -82.2381 275° West 354 407 10,000  Level Indianapolis Center
07:03PM 39.8186 -82.2494 274° West 352 405 10,000  Level Indianapolis Center
07:04PM 39.8250 -82.3942 273° West 351 404 10,000  Level Indianapolis Center
07:05PM 39.8353 -82.4911 278° West 352 405 10,000  Level Indianapolis Center
07:06PM 39.8361 -82.5019 276° West 352 405 10,000 -81 Level Indianapolis Center
07:07PM 39.8594 -82.6128 285° West 326 375 9,900 -900 Descending Indianapolis Center
07:08PM 39.8789 -82.7239 283° West 276 318 8,200 -1,750 Descending Indianapolis Center
07:09PM 39.8969 -82.8222 283° West 276 318 6,400 -1,138 Descending Indianapolis Center
07:09PM 39.9097 -82.9089 281° West 263 303 6,000 -783 Descending Indianapolis Center
07:10PM 39.9261 -83.0014 283° West 255 293 4,900 -1,200 Descending Indianapolis Center
07:11PM 39.9281 -83.0117 284° West 262 302 4,600 -1,869 Descending Indianapolis Center
07:11PM 39.9633 -83.0731 307° West 255 293 3,000 -1,672 Descending Indianapolis Center
07:12PM 39.9694 -83.0742 352° North 259 298 2,900 -182 Descending Indianapolis Center
07:13PM 40.0158 -83.0297 36° Northeast 240 276 2,800 -639 Descending Indianapolis Center
07:14PM 40.0053 -82.9603 101° East 223 257 1,600 -1,091 Descending Indianapolis Center